W5CGC Weather Reports


Display with metric or nautical units.
time (UTC)temp
F
wind
direction
speed
MPH
gust
MPH
rain 1hr
in
rain 24hr
in
rain mn
in
humidity
%
barometer
mb
20260507121535 51 0 0.0 0.0 0.00 0.07 0.00 71 1019.9
20260507120034 51 0 0.0 0.0 0.00 0.07 0.00 71 1019.5
20260507114532 51 0 0.0 0.0 0.00 0.07 0.00 70 1019.5
20260507113038 51 0 0.0 0.0 0.00 0.07 0.00 70 1019.3
20260507111541 51 0 0.0 1.0 0.00 0.07 0.00 70 1019.6
20260507110037 52 0 0.0 0.0 0.00 0.07 0.00 69 1019.5
20260507104534 52 0 0.0 0.0 0.00 0.07 0.00 68 1019.1
20260507103037 53 0 0.0 0.0 0.00 0.07 0.00 68 1018.9
20260507101544 53 0 0.0 1.0 0.00 0.07 0.00 69 1018.4
20260507100040 53 0 0.0 0.0 0.00 0.07 0.00 69 1018.4
20260507094544 54 133 0.0 1.0 0.00 0.07 0.00 68 1018.2
20260507093042 54 0 0.0 1.0 0.00 0.07 0.00 68 1017.8
20260507091536 54 0 0.0 1.0 0.00 0.07 0.00 67 1017.7
20260507090036 54 0 0.0 1.0 0.00 0.07 0.00 67 1017.6
20260507084536 54 0 0.0 1.0 0.00 0.07 0.00 66 1017.8
20260507083035 55 0 0.0 1.0 0.00 0.07 0.00 66 1017.8
20260507081539 55 0 0.0 1.0 0.00 0.07 0.00 65 1017.9
20260507080040 55 0 0.0 3.0 0.00 0.07 0.00 64 1017.7
20260507074535 55 0 0.0 2.0 0.00 0.07 0.00 64 1017.5
20260507073039 56 0 0.0 3.0 0.00 0.07 0.00 63 1017.4
20260507071535 56 125 0.0 1.0 0.00 0.07 0.00 63 1017.3
20260507070034 56 126 0.0 2.0 0.00 0.07 0.00 63 1017.2
20260507064533 57 0 0.0 1.0 0.00 0.07 0.00 63 1017.2
20260507063045 57 0 0.0 1.0 0.00 0.07 0.00 62 1017.2
20260507061535 57 0 0.0 1.0 0.00 0.07 0.00 62 1017.1
20260507060048 57 0 0.0 0.0 0.00 0.07 0.00 61 1016.9
20260507054546 58 0 0.0 1.0 0.00 0.07 0.00 61 1016.9
20260507053031 58 0 0.0 3.0 0.00 0.07 0.00 60 1016.7
20260507051531 58 134 0.0 1.0 0.00 0.07 0.00 60 1016.6
20260507050038 58 0 1.0 3.0 0.00 0.07 0.00 59 1016.8
20260507044548 58 0 0.0 3.0 0.00 0.07 0.07 58 1016.8
20260507043032 59 0 0.0 4.0 0.00 0.07 0.07 57 1017.0
20260507041532 59 0 0.0 2.0 0.00 0.07 0.07 56 1017.1
20260507040034 60 172 0.0 4.0 0.00 0.07 0.07 56 1017.3
20260507034535 60 84 0.0 4.0 0.00 0.07 0.07 56 1017.2
20260507033033 60 131 0.0 3.0 0.00 0.07 0.07 56 1017.3
20260507031532 60 143 1.0 7.0 0.00 0.07 0.07 56 1017.1
20260507030034 60 152 2.0 7.0 0.00 0.07 0.07 55 1017.1
20260507024539 61 138 1.0 5.0 0.00 0.07 0.07 55 1016.5
20260507023031 61 161 1.0 5.0 0.00 0.07 0.07 56 1016.3
20260507021537 61 124 1.0 5.0 0.00 0.07 0.07 56 1015.9
20260507020042 62 155 0.0 3.0 0.00 0.07 0.07 57 1015.8
20260507014538 62 101 0.0 2.0 0.00 0.07 0.07 56 1015.4
20260507013045 62 136 1.0 5.0 0.00 0.07 0.07 56 1015.1
20260507011541 62 0 1.0 3.0 0.00 0.07 0.07 56 1014.5
20260507010043 62 105 0.0 5.0 0.00 0.07 0.07 56 1014.3
20260507004536 62 155 1.0 4.0 0.00 0.07 0.07 55 1014.3
20260507003033 63 0 0.0 4.0 0.00 0.07 0.07 55 1014.3
20260507001538 63 178 1.0 4.0 0.00 0.07 0.07 56 1014.1
20260507000035 64 165 1.0 3.0 0.00 0.07 0.07 55 1013.8
20260506234541 64 120 1.0 4.0 0.00 0.07 0.07 54 1013.7
20260506233038 65 179 0.0 3.0 0.00 0.07 0.07 55 1013.6
20260506231540 65 75 0.0 3.0 0.00 0.07 0.07 53 1013.4
20260506230035 66 146 0.0 7.0 0.00 0.07 0.07 51 1013.4
20260506224537 67 154 1.0 2.0 0.00 0.07 0.07 52 1013.3
20260506223032 67 138 1.0 4.0 0.00 0.07 0.07 51 1013.2
20260506221539 66 147 1.0 6.0 0.00 0.07 0.07 53 1013.1
20260506220038 66 150 1.0 3.0 0.00 0.07 0.07 53 1013.3
20260506214542 64 0 1.0 4.0 0.00 0.07 0.07 53 1013.4
20260506213041 63 138 0.0 3.0 0.00 0.07 0.07 56 1013.1
20260506211535 63 0 0.0 2.0 0.00 0.07 0.07 56 1013.5
20260506210037 63 153 0.0 3.0 0.00 0.07 0.07 55 1013.5
20260506204534 63 187 0.0 3.0 0.00 0.07 0.07 55 1013.5
20260506203040 63 0 1.0 3.0 0.00 0.07 0.07 55 1013.8
20260506201538 62 0 0.0 4.0 0.00 0.07 0.07 55 1014.1
20260506200037 61 0 0.0 3.0 0.00 0.07 0.07 56 1014.1
20260506194543 60 158 0.0 3.0 0.00 0.07 0.07 57 1014.4
20260506193034 60 109 0.0 1.0 0.00 0.07 0.07 57 1014.8
20260506191539 60 0 0.0 2.0 0.00 0.07 0.07 58 1014.6
20260506190039 60 113 0.0 3.0 0.00 0.07 0.07 57 1014.8
20260506184537 60 151 0.0 5.0 0.00 0.07 0.07 57 1014.8
20260506183034 60 121 1.0 3.0 0.00 0.07 0.07 57 1013.4
20260506181535 59 182 1.0 4.0 0.00 0.07 0.07 60 1013.5
20260506180043 58 0 1.0 5.0 0.00 0.07 0.07 60 1014.2
20260506174536 57 0 0.0 2.0 0.00 0.07 0.07 65 1014.0
20260506173041 55 141 0.0 7.0 0.00 0.07 0.07 66 1014.3
20260506171551 55 136 0.0 5.0 0.00 0.07 0.07 66 1013.9
20260506170039 55 0 0.0 6.0 0.00 0.07 0.07 68 1014.3
20260506164534 54 0 0.0 3.0 0.00 0.07 0.07 68 1014.6
20260506163041 54 0 0.0 2.0 0.00 0.07 0.07 68 1014.8
20260506161538 54 0 0.0 6.0 0.06 0.07 0.07 68 1014.8
20260506160039 54 169 0.0 4.0 0.07 0.07 0.07 70 1013.7
20260506154539 54 0 0.0 1.0 0.07 0.07 0.07 70 1014.5
20260506153034 53 0 0.0 4.0 0.06 0.06 0.06 69 1014.7
20260506151537 54 0 0.0 1.0 0.01 0.01 0.01 65 1015.9
20260506150039 54 0 0.0 0.0 0.00 0.00 0.00 64 1015.9
20260506144546 54 172 0.0 4.0 0.00 0.00 0.00 65 1015.4
20260506143038 54 0 1.0 4.0 0.00 0.00 0.00 63 1013.8
20260506141534 54 0 0.0 5.0 0.00 0.00 0.00 63 1015.2
20260506140037 54 108 1.0 4.0 0.00 0.00 0.00 63 1014.5
20260506134539 54 0 0.0 5.0 0.00 0.00 0.00 64 1013.9
20260506133045 53 134 0.0 4.0 0.00 0.00 0.00 63 1013.4
20260506131538 53 0 0.0 4.0 0.00 0.00 0.00 63 1013.7
20260506130037 53 92 0.0 5.0 0.00 0.00 0.00 64 1013.3
20260506124536 53 169 0.0 2.0 0.00 0.00 0.00 63 1013.2
20260506123034 54 149 1.0 6.0 0.00 0.00 0.00 62 1013.0